Time,TemperatureF,DewpointF,PressureIn,WindDirection,WindDirectionDegrees,WindSpeedMPH,WindSpeedGustMPH,Humidity,HourlyPrecipIn,Conditions,Clouds,dailyrainin,SoftwareType,DateUTC
2013-07-01 00:03:00,63.1,53.6,30.07,NNW,337,0.0,0.0,71,0.00,,,0.00,WUHU21623XXSP,2013-07-01 05:03:00,
2013-07-01 00:07:00,63.7,52.9,30.06,NNW,337,0.0,0.0,68,0.00,,,0.00,WUHU21623XXSP,2013-07-01 05:07:00,
2013-07-01 00:13:00,63.9,53.5,30.06,NNW,337,0.0,0.0,69,0.00,,,0.00,WUHU21623XXSP,2013-07-01 05:13:00,
2013-07-01 00:17:00,63.3,53.4,30.07,NNW,337,0.0,0.0,70,0.00,,,0.00,WUHU21623XXSP,2013-07-01 05:17:00,
2013-07-01 00:23:00,63.1,53.2,30.07,NNW,337,0.0,0.0,70,0.00,,,0.00,WUHU21623XXSP,2013-07-01 05:23:00,
2013-07-01 00:27:00,63.1,53.2,30.07,NNW,337,0.0,0.0,70,0.00,,,0.00,WUHU21623XXSP,2013-07-01 05:27:00,
2013-07-01 00:32:00,63.1,52.8,30.06,NNW,337,0.0,0.0,69,0.00,,,0.00,WUHU21623XXSP,2013-07-01 05:32:00,
2013-07-01 00:37:00,63.0,52.6,30.06,NNW,337,0.0,0.0,69,0.00,,,0.00,WUHU21623XXSP,2013-07-01 05:37:00,
2013-07-01 00:42:00,63.0,52.6,30.07,NNW,337,0.0,0.0,69,0.00,,,0.00,WUHU21623XXSP,2013-07-01 05:42:00,
2013-07-01 00:47:00,62.6,52.3,30.07,NNW,337,0.0,0.0,69,0.00,,,0.00,WUHU21623XXSP,2013-07-01 05:47:00,
2013-07-01 00:53:00,62.6,51.9,30.07,NNW,337,0.0,0.0,68,0.00,,,0.00,WUHU21623XXSP,2013-07-01 05:53:00,
2013-07-01 00:58:00,62.6,51.9,30.07,NNW,337,0.0,0.0,68,0.00,,,0.00,WUHU21623XXSP,2013-07-01 05:58:00,
2013-07-01 01:03:00,62.8,52.4,30.07,NNW,337,0.0,0.0,69,0.00,,,0.00,WUHU21623XXSP,2013-07-01 06:03:00,
2013-07-01 01:08:00,63.1,52.8,30.07,NNW,337,0.0,0.0,69,0.00,,,0.00,WUHU21623XXSP,2013-07-01 06:08:00,
2013-07-01 01:13:00,62.4,52.5,30.08,NNW,337,0.0,0.0,70,0.00,,,0.00,WUHU21623XXSP,2013-07-01 06:13:00,
2013-07-01 01:18:00,62.4,52.9,30.08,NNW,337,0.0,0.0,71,0.00,,,0.00,WUHU21623XXSP,2013-07-01 06:18:00,
2013-07-01 01:23:00,62.6,52.7,30.08,NNW,337,0.0,0.0,70,0.00,,,0.00,WUHU21623XXSP,2013-07-01 06:23:00,
2013-07-01 01:28:00,62.8,52.9,30.08,NNW,337,0.0,0.0,70,0.00,,,0.00,WUHU21623XXSP,2013-07-01 06:28:00,
2013-07-01 01:33:00,62.4,52.9,30.08,NNW,337,0.0,0.0,71,0.00,,,0.00,WUHU21623XXSP,2013-07-01 06:33:00,
2013-07-01 01:38:00,62.1,52.9,30.08,NNW,337,0.0,0.0,72,0.00,,,0.00,WUHU21623XXSP,2013-07-01 06:38:00,
2013-07-01 01:43:00,61.7,52.6,30.08,NNW,337,0.0,0.0,72,0.00,,,0.00,WUHU21623XXSP,2013-07-01 06:43:00,
2013-07-01 01:48:00,62.2,52.7,30.09,NNW,337,0.0,0.0,71,0.00,,,0.00,WUHU21623XXSP,2013-07-01 06:48:00,
2013-07-01 01:53:00,62.4,52.9,30.09,NNW,337,0.0,0.0,71,0.00,,,0.00,WUHU21623XXSP,2013-07-01 06:53:00,
2013-07-01 01:58:00,62.2,52.7,30.09,NNW,337,0.0,0.0,71,0.00,,,0.00,WUHU21623XXSP,2013-07-01 06:58:00,
2013-07-01 02:03:00,62.4,52.9,30.09,NNW,337,0.0,0.0,71,0.00,,,0.00,WUHU21623XXSP,2013-07-01 07:03:00,
2013-07-01 02:08:00,62.6,52.7,30.09,NNW,337,0.0,0.0,70,0.00,,,0.00,WUHU21623XXSP,2013-07-01 07:08:00,
2013-07-01 02:13:00,62.6,52.7,30.09,NNW,337,0.0,0.0,70,0.00,,,0.00,WUHU21623XXSP,2013-07-01 07:13:00,
2013-07-01 02:18:00,62.4,52.9,30.09,NNW,337,0.0,0.0,71,0.00,,,0.00,WUHU21623XXSP,2013-07-01 07:18:00,
2013-07-01 02:23:00,62.2,52.7,30.09,NNW,337,0.0,0.0,71,0.00,,,0.00,WUHU21623XXSP,2013-07-01 07:23:00,
2013-07-01 02:28:00,62.2,52.7,30.09,NNW,337,0.0,0.0,71,0.00,,,0.00,WUHU21623XXSP,2013-07-01 07:28:00,
2013-07-01 02:33:00,62.2,52.7,30.09,NNW,337,0.0,0.0,71,0.00,,,0.00,WUHU21623XXSP,2013-07-01 07:33:00,
2013-07-01 02:38:00,62.4,52.9,30.09,NNW,337,0.0,0.0,71,0.00,,,0.00,WUHU21623XXSP,2013-07-01 07:38:00,
2013-07-01 02:43:00,62.6,52.7,30.09,NNW,337,0.0,0.0,70,0.00,,,0.00,WUHU21623XXSP,2013-07-01 07:43:00,
2013-07-01 02:48:00,62.4,52.9,30.09,NNW,337,0.0,0.0,71,0.00,,,0.00,WUHU21623XXSP,2013-07-01 07:48:00,
2013-07-01 02:53:00,62.1,52.6,30.09,NNW,337,0.0,0.0,71,0.00,,,0.00,WUHU21623XXSP,2013-07-01 07:53:00,
2013-07-01 02:58:00,61.7,52.6,30.10,NNW,337,0.0,0.0,72,0.00,,,0.00,WUHU21623XXSP,2013-07-01 07:58:00,
2013-07-01 03:03:00,61.7,52.6,30.09,NNW,337,0.0,0.0,72,0.00,,,0.00,WUHU21623XXSP,2013-07-01 08:03:00,
2013-07-01 03:08:00,61.7,52.6,30.09,NNW,337,0.0,0.0,72,0.00,,,0.00,WUHU21623XXSP,2013-07-01 08:08:00,
2013-07-01 03:13:00,61.5,52.8,30.09,NNW,337,0.0,0.0,73,0.00,,,0.00,WUHU21623XXSP,2013-07-01 08:13:00,
2013-07-01 03:18:00,61.3,53.0,30.09,NNW,337,0.0,0.0,74,0.00,,,0.00,WUHU21623XXSP,2013-07-01 08:18:00,
2013-07-01 03:23:00,61.2,53.2,30.09,NNW,337,0.0,0.0,75,0.00,,,0.00,WUHU21623XXSP,2013-07-01 08:23:00,
2013-07-01 03:28:00,60.4,52.9,30.09,NNW,337,0.0,0.0,76,0.00,,,0.00,WUHU21623XXSP,2013-07-01 08:28:00,
2013-07-01 03:33:00,60.6,52.7,30.10,NNW,337,0.0,0.0,75,0.00,,,0.00,WUHU21623XXSP,2013-07-01 08:33:00,
2013-07-01 03:38:00,60.6,53.1,30.10,NNW,337,0.0,0.0,76,0.00,,,0.00,WUHU21623XXSP,2013-07-01 08:38:00,
2013-07-01 03:43:00,60.1,52.5,30.10,NNW,337,0.0,0.0,76,0.00,,,0.00,WUHU21623XXSP,2013-07-01 08:43:00,
2013-07-01 03:48:00,59.7,52.9,30.10,NNW,337,0.0,0.0,78,0.00,,,0.00,WUHU21623XXSP,2013-07-01 08:48:00,
2013-07-01 03:53:00,59.5,52.7,30.10,NNW,337,0.0,0.0,78,0.00,,,0.00,WUHU21623XXSP,2013-07-01 08:53:00,
2013-07-01 03:58:00,59.4,52.9,30.10,NE,45,0.4,1.6,79,0.00,,,0.00,WUHU21623XXSP,2013-07-01 08:58:00,
2013-07-01 04:03:00,59.0,52.5,30.10,NE,45,0.0,1.6,79,0.00,,,0.00,WUHU21623XXSP,2013-07-01 09:03:00,
2013-07-01 04:08:00,58.8,52.7,30.10,NE,45,0.0,1.6,80,0.00,,,0.00,WUHU21623XXSP,2013-07-01 09:08:00,
2013-07-01 04:13:00,58.8,52.7,30.10,ENE,67,0.0,1.6,80,0.00,,,0.00,WUHU21623XXSP,2013-07-01 09:13:00,
2013-07-01 04:18:00,58.8,52.7,30.11,NE,45,0.9,2.2,80,0.00,,,0.00,WUHU21623XXSP,2013-07-01 09:18:00,
2013-07-01 04:23:00,58.8,52.7,30.11,ENE,67,0.0,2.2,80,0.00,,,0.00,WUHU21623XXSP,2013-07-01 09:23:00,
2013-07-01 04:28:00,58.6,52.8,30.11,ENE,67,0.0,1.3,81,0.00,,,0.00,WUHU21623XXSP,2013-07-01 09:28:00,
2013-07-01 04:33:00,58.5,53.0,30.11,ENE,67,0.0,1.1,82,0.00,,,0.00,WUHU21623XXSP,2013-07-01 09:33:00,
2013-07-01 04:38:00,58.3,52.8,30.11,NE,45,0.0,2.2,82,0.00,,,0.00,WUHU21623XXSP,2013-07-01 09:38:00,
2013-07-01 04:43:00,58.5,53.0,30.11,ENE,67,0.0,2.2,82,0.00,,,0.00,WUHU21623XXSP,2013-07-01 09:43:00,
2013-07-01 04:48:00,58.3,52.8,30.11,ENE,67,0.0,0.9,82,0.00,,,0.00,WUHU21623XXSP,2013-07-01 09:48:00,
2013-07-01 04:53:00,57.9,52.8,30.11,ENE,67,0.0,0.9,83,0.00,,,0.00,WUHU21623XXSP,2013-07-01 09:53:00,
2013-07-01 04:58:00,57.9,52.8,30.12,ENE,67,0.0,0.0,83,0.00,,,0.00,WUHU21623XXSP,2013-07-01 09:58:00,
2013-07-01 05:03:00,57.7,52.6,30.12,ENE,67,0.0,0.0,83,0.00,,,0.00,WUHU21623XXSP,2013-07-01 10:03:00,
2013-07-01 05:08:00,57.6,52.4,30.12,ENE,67,0.0,0.0,83,0.00,,,0.00,WUHU21623XXSP,2013-07-01 10:08:00,
2013-07-01 05:13:00,57.2,52.1,30.12,ENE,67,0.0,0.0,83,0.00,,,0.00,WUHU21623XXSP,2013-07-01 10:13:00,
2013-07-01 05:18:00,57.4,52.2,30.12,ENE,67,0.0,0.0,83,0.00,,,0.00,WUHU21623XXSP,2013-07-01 10:18:00,
2013-07-01 05:23:00,57.2,52.1,30.12,ENE,67,0.0,0.0,83,0.00,,,0.00,WUHU21623XXSP,2013-07-01 10:23:00,
2013-07-01 05:28:00,57.0,52.2,30.12,ENE,67,0.0,0.0,84,0.00,,,0.00,WUHU21623XXSP,2013-07-01 10:28:00,
2013-07-01 05:33:00,57.0,52.2,30.13,ENE,67,0.0,0.0,84,0.00,,,0.00,WUHU21623XXSP,2013-07-01 10:33:00,
2013-07-01 05:38:00,57.0,52.2,30.13,ENE,67,0.0,0.0,84,0.00,,,0.00,WUHU21623XXSP,2013-07-01 10:38:00,
2013-07-01 05:43:00,56.8,52.3,30.13,ENE,67,0.0,0.0,85,0.00,,,0.00,WUHU21623XXSP,2013-07-01 10:43:00,
2013-07-01 05:48:00,56.8,52.3,30.13,ENE,67,0.0,0.0,85,0.00,,,0.00,WUHU21623XXSP,2013-07-01 10:48:00,
2013-07-01 05:53:00,56.8,52.3,30.13,ENE,67,0.0,0.0,85,0.00,,,0.00,WUHU21623XXSP,2013-07-01 10:53:00,
2013-07-01 05:58:00,56.8,52.3,30.13,ENE,67,0.0,0.0,85,0.00,,,0.00,WUHU21623XXSP,2013-07-01 10:58:00,
2013-07-01 06:03:00,56.8,52.3,30.14,NNW,337,0.0,0.0,85,0.00,,,0.00,WUHU21623XXSP,2013-07-01 11:03:00,
2013-07-01 06:08:00,56.8,52.3,30.13,ENE,67,0.0,0.0,85,0.00,,,0.00,WUHU21623XXSP,2013-07-01 11:08:00,
2013-07-01 06:13:00,57.0,52.5,30.13,NE,45,0.0,0.0,85,0.00,,,0.00,WUHU21623XXSP,2013-07-01 11:13:00,
2013-07-01 06:18:00,57.0,52.2,30.14,NE,45,0.0,0.0,84,0.00,,,0.00,WUHU21623XXSP,2013-07-01 11:18:00,
2013-07-01 06:23:00,57.2,52.4,30.14,NE,45,0.0,0.0,84,0.00,,,0.00,WUHU21623XXSP,2013-07-01 11:23:00,
2013-07-01 06:28:00,57.6,52.7,30.14,NE,45,0.0,0.0,84,0.00,,,0.00,WUHU21623XXSP,2013-07-01 11:28:00,
2013-07-01 06:33:00,57.6,52.7,30.14,ENE,67,0.0,0.0,84,0.00,,,0.00,WUHU21623XXSP,2013-07-01 11:33:00,
2013-07-01 06:38:00,57.7,52.9,30.14,NE,45,0.0,0.0,84,0.00,,,0.00,WUHU21623XXSP,2013-07-01 11:38:00,
2013-07-01 06:43:00,57.9,52.8,30.14,ENE,67,0.0,0.0,83,0.00,,,0.00,WUHU21623XXSP,2013-07-01 11:43:00,
2013-07-01 06:48:00,58.1,53.0,30.14,ENE,67,0.0,0.0,83,0.00,,,0.00,WUHU21623XXSP,2013-07-01 11:48:00,
2013-07-01 06:53:00,58.3,53.1,30.14,ENE,67,0.0,0.0,83,0.00,,,0.00,WUHU21623XXSP,2013-07-01 11:53:00,
2013-07-01 06:58:00,58.8,53.3,30.14,ENE,67,0.0,0.0,82,0.00,,,0.00,WUHU21623XXSP,2013-07-01 11:58:00,
2013-07-01 07:03:00,58.8,53.0,30.14,ENE,67,0.0,0.7,81,0.00,,,0.00,WUHU21623XXSP,2013-07-01 12:03:00,
2013-07-01 07:08:00,59.0,53.2,30.15,ENE,67,0.0,0.7,81,0.00,,,0.00,WUHU21623XXSP,2013-07-01 12:08:00,
2013-07-01 07:13:00,59.7,52.5,30.15,ENE,67,0.0,0.0,77,0.00,,,0.00,WUHU21623XXSP,2013-07-01 12:13:00,
2013-07-01 07:18:00,60.1,52.5,30.14,NE,45,0.2,2.7,76,0.00,,,0.00,WUHU21623XXSP,2013-07-01 12:18:00,
2013-07-01 07:23:00,60.4,52.5,30.15,SE,139,0.5,5.1,75,0.00,,,0.00,WUHU21623XXSP,2013-07-01 12:23:00,
2013-07-01 07:28:00,60.6,52.7,30.15,ESE,112,1.1,5.1,75,0.00,,,0.00,WUHU21623XXSP,2013-07-01 12:28:00,
2013-07-01 07:33:00,60.6,52.0,30.15,ENE,67,1.3,2.5,73,0.00,,,0.00,WUHU21623XXSP,2013-07-01 12:33:00,
2013-07-01 07:38:00,61.0,51.2,30.15,SE,135,0.0,5.8,70,0.00,,,0.00,WUHU21623XXSP,2013-07-01 12:38:00,
2013-07-01 07:43:00,61.0,51.2,30.15,ESE,112,1.6,5.4,70,0.00,,,0.00,WUHU21623XXSP,2013-07-01 12:43:00,
2013-07-01 07:48:00,61.3,51.2,30.16,ENE,67,1.8,7.8,69,0.00,,,0.00,WUHU21623XXSP,2013-07-01 12:48:00,
2013-07-01 07:53:00,61.7,51.1,30.15,NNW,337,0.0,7.8,68,0.00,,,0.00,WUHU21623XXSP,2013-07-01 12:53:00,
2013-07-01 07:58:00,61.9,51.6,30.16,SE,135,0.0,7.4,69,0.00,,,0.00,WUHU21623XXSP,2013-07-01 12:58:00,
2013-07-01 08:03:00,62.1,51.4,30.16,SSE,157,4.3,7.4,68,0.00,,,0.00,WUHU21623XXSP,2013-07-01 13:03:00,
2013-07-01 08:08:00,62.4,51.7,30.16,North,0,0.0,4.3,68,0.00,,,0.00,WUHU21623XXSP,2013-07-01 13:08:00,
2013-07-01 08:13:00,62.8,52.0,30.16,SSE,157,0.0,3.1,68,0.00,,,0.00,WUHU21623XXSP,2013-07-01 13:13:00,
2013-07-01 08:18:00,63.3,51.7,30.16,SSE,157,0.0,3.1,66,0.00,,,0.00,WUHU21623XXSP,2013-07-01 13:18:00,
2013-07-01 08:23:00,63.7,51.7,30.16,SSE,157,2.7,6.7,65,0.00,,,0.00,WUHU21623XXSP,2013-07-01 13:23:00,
2013-07-01 08:28:00,64.2,52.2,30.16,South,180,2.9,6.7,65,0.00,,,0.00,WUHU21623XXSP,2013-07-01 13:28:00,
2013-07-01 08:33:00,64.6,51.6,30.16,SSE,157,0.4,3.8,63,0.00,,,0.00,WUHU21623XXSP,2013-07-01 13:33:00,
2013-07-01 08:38:00,64.8,52.3,30.16,SSE,157,0.0,2.9,64,0.00,,,0.00,WUHU21623XXSP,2013-07-01 13:38:00,
2013-07-01 08:43:00,64.8,52.3,30.16,SSE,157,0.0,5.4,64,0.00,,,0.00,WUHU21623XXSP,2013-07-01 13:43:00,
2013-07-01 08:48:00,65.7,52.3,30.16,SSW,202,0.0,5.4,62,0.00,,,0.00,WUHU21623XXSP,2013-07-01 13:48:00,
2013-07-01 08:53:00,66.0,53.5,30.16,SSW,202,0.0,2.7,64,0.00,,,0.00,WUHU21623XXSP,2013-07-01 13:53:00,
2013-07-01 08:58:00,66.6,52.3,30.16,SE,135,0.0,2.7,60,0.00,,,0.00,WUHU21623XXSP,2013-07-01 13:58:00,
2013-07-01 09:03:00,67.3,52.5,30.16,SE,135,1.6,3.1,59,0.00,,,0.00,WUHU21623XXSP,2013-07-01 14:03:00,
2013-07-01 09:08:00,67.6,52.8,30.16,SSE,157,0.0,4.0,59,0.00,,,0.00,WUHU21623XXSP,2013-07-01 14:08:00,
2013-07-01 09:13:00,68.2,52.8,30.16,SSE,157,0.0,4.0,58,0.00,,,0.00,WUHU21623XXSP,2013-07-01 14:13:00,
2013-07-01 09:18:00,68.5,54.1,30.16,East,90,0.0,3.1,60,0.00,,,0.00,WUHU21623XXSP,2013-07-01 14:18:00,
2013-07-01 09:23:00,69.1,54.2,30.16,East,90,0.0,3.1,59,0.00,,,0.00,WUHU21623XXSP,2013-07-01 14:23:00,
2013-07-01 09:28:00,69.8,53.4,30.16,East,90,0.0,2.0,56,0.00,,,0.00,WUHU21623XXSP,2013-07-01 14:28:00,
2013-07-01 09:33:00,69.6,53.2,30.16,East,90,0.0,2.0,56,0.00,,,0.00,WUHU21623XXSP,2013-07-01 14:33:00,
2013-07-01 09:38:00,69.4,55.0,30.16,East,90,0.0,2.0,60,0.00,,,0.00,WUHU21623XXSP,2013-07-01 14:38:00,
2013-07-01 09:43:00,70.9,52.8,30.16,SE,135,2.0,2.7,53,0.00,,,0.00,WUHU21623XXSP,2013-07-01 14:43:00,
2013-07-01 09:48:00,71.4,54.3,30.16,South,180,0.0,2.7,55,0.00,,,0.00,WUHU21623XXSP,2013-07-01 14:48:00,
2013-07-01 09:53:00,70.5,54.5,30.16,SSE,157,0.0,2.5,57,0.00,,,0.00,WUHU21623XXSP,2013-07-01 14:53:00,
2013-07-01 09:58:00,70.9,54.4,30.16,ESE,112,0.7,3.1,56,0.00,,,0.00,WUHU21623XXSP,2013-07-01 14:58:00,
2013-07-01 10:03:00,73.2,56.0,30.16,NE,45,0.0,3.1,55,0.00,,,0.00,WUHU21623XXSP,2013-07-01 15:03:00,
2013-07-01 10:08:00,73.8,55.5,30.16,ENE,67,0.2,1.6,53,0.00,,,0.00,WUHU21623XXSP,2013-07-01 15:08:00,
2013-07-01 10:13:00,73.0,56.3,30.15,ENE,67,0.0,1.6,56,0.00,,,0.00,WUHU21623XXSP,2013-07-01 15:13:00,
2013-07-01 10:18:00,73.0,53.8,30.16,ENE,67,0.0,1.6,51,0.00,,,0.00,WUHU21623XXSP,2013-07-01 15:18:00,
2013-07-01 10:23:00,73.6,54.8,30.16,ENE,67,0.0,1.6,52,0.00,,,0.00,WUHU21623XXSP,2013-07-01 15:23:00,
2013-07-01 10:28:00,74.3,56.5,30.16,ENE,67,0.0,2.0,54,0.00,,,0.00,WUHU21623XXSP,2013-07-01 15:28:00,
2013-07-01 10:33:00,74.5,55.7,30.15,ENE,67,0.0,2.0,52,0.00,,,0.00,WUHU21623XXSP,2013-07-01 15:33:00,
2013-07-01 10:38:00,75.4,57.1,30.15,NE,45,0.0,2.0,53,0.00,,,0.00,WUHU21623XXSP,2013-07-01 15:38:00,
2013-07-01 10:43:00,74.8,56.6,30.15,NW,315,5.1,5.1,53,0.00,,,0.00,WUHU21623XXSP,2013-07-01 15:43:00,
2013-07-01 10:48:00,75.7,55.9,30.16,NNE,22,0.0,5.1,50,0.00,,,0.00,WUHU21623XXSP,2013-07-01 15:48:00,
2013-07-01 10:53:00,75.9,56.0,30.16,NNE,22,0.4,4.5,50,0.00,,,0.00,WUHU21623XXSP,2013-07-01 15:53:00,
2013-07-01 10:58:00,76.1,57.7,30.16,NNW,337,2.5,4.5,53,0.00,,,0.00,WUHU21623XXSP,2013-07-01 15:58:00,
2013-07-01 11:03:00,77.4,58.4,30.15,NW,315,0.0,3.1,52,0.00,,,0.00,WUHU21623XXSP,2013-07-01 16:03:00,
2013-07-01 11:08:00,77.2,58.2,30.15,NW,315,0.0,3.1,52,0.00,,,0.00,WUHU21623XXSP,2013-07-01 16:08:00,
2013-07-01 11:13:00,76.6,55.5,30.15,NW,315,0.0,3.1,48,0.00,,,0.00,WUHU21623XXSP,2013-07-01 16:13:00,
2013-07-01 11:18:00,76.5,57.0,30.15,West,270,1.1,2.7,51,0.00,,,0.00,WUHU21623XXSP,2013-07-01 16:18:00,
2013-07-01 11:23:00,77.4,55.5,30.15,SSE,157,0.0,3.4,47,0.00,,,0.00,WUHU21623XXSP,2013-07-01 16:23:00,
2013-07-01 11:28:00,77.2,56.0,30.15,SE,135,4.0,4.0,48,0.00,,,0.00,WUHU21623XXSP,2013-07-01 16:28:00,
2013-07-01 11:33:00,77.5,56.9,30.15,North,0,0.0,4.7,49,0.00,,,0.00,WUHU21623XXSP,2013-07-01 16:33:00,
2013-07-01 11:38:00,77.0,55.2,30.15,North,0,3.1,4.7,47,0.00,,,0.00,WUHU21623XXSP,2013-07-01 16:38:00,
2013-07-01 11:43:00,76.3,57.2,30.15,ENE,67,0.0,3.1,51,0.00,,,0.00,WUHU21623XXSP,2013-07-01 16:43:00,
2013-07-01 11:48:00,77.9,56.6,30.15,ENE,67,0.7,3.1,48,0.00,,,0.00,WUHU21623XXSP,2013-07-01 16:48:00,
2013-07-01 11:53:00,76.8,55.6,30.15,East,90,0.0,3.8,48,0.00,,,0.00,WUHU21623XXSP,2013-07-01 16:53:00,
2013-07-01 11:58:00,78.6,56.6,30.15,NW,315,0.0,3.8,47,0.00,,,0.00,WUHU21623XXSP,2013-07-01 16:58:00,
2013-07-01 12:03:00,78.6,57.9,30.15,WNW,292,0.0,3.6,49,0.00,,,0.00,WUHU21623XXSP,2013-07-01 17:03:00,
2013-07-01 12:08:00,77.9,54.8,30.15,SSW,202,0.0,3.1,45,0.00,,,0.00,WUHU21623XXSP,2013-07-01 17:08:00,
2013-07-01 12:13:00,78.4,57.7,30.15,NW,315,0.0,5.1,49,0.00,,,0.00,WUHU21623XXSP,2013-07-01 17:13:00,
2013-07-01 12:18:00,78.6,53.6,30.15,NNE,22,2.9,5.1,42,0.00,,,0.00,WUHU21623XXSP,2013-07-01 17:18:00,
2013-07-01 12:23:00,78.4,53.4,30.15,North,0,3.1,3.6,42,0.00,,,0.00,WUHU21623XXSP,2013-07-01 17:23:00,
2013-07-01 12:28:00,79.0,54.5,30.15,NNW,337,0.0,7.2,43,0.00,,,0.00,WUHU21623XXSP,2013-07-01 17:28:00,
2013-07-01 12:33:00,79.3,52.2,30.15,NW,315,0.0,7.2,39,0.00,,,0.00,WUHU21623XXSP,2013-07-01 17:33:00,
2013-07-01 12:38:00,79.3,54.8,30.14,NW,315,0.0,7.2,43,0.00,,,0.00,WUHU21623XXSP,2013-07-01 17:38:00,
2013-07-01 12:43:00,79.2,54.1,30.14,NNE,22,1.6,7.2,42,0.00,,,0.00,WUHU21623XXSP,2013-07-01 17:43:00,
2013-07-01 12:48:00,78.6,50.0,30.15,NNW,337,1.1,4.5,37,0.00,,,0.00,WUHU21623XXSP,2013-07-01 17:48:00,
2013-07-01 12:53:00,78.1,50.3,30.14,NNW,337,0.0,4.5,38,0.00,,,0.00,WUHU21623XXSP,2013-07-01 17:53:00,
2013-07-01 12:58:00,78.8,51.7,30.15,NNE,22,2.0,4.3,39,0.00,,,0.00,WUHU21623XXSP,2013-07-01 17:58:00,
2013-07-01 13:03:00,77.4,48.2,30.15,NNE,22,0.0,4.3,36,0.00,,,0.00,WUHU21623XXSP,2013-07-01 18:03:00,
2013-07-01 13:08:00,77.4,51.2,30.15,NW,315,1.6,3.6,40,0.00,,,0.00,WUHU21623XXSP,2013-07-01 18:08:00,
2013-07-01 13:13:00,77.5,52.0,30.15,North,0,1.8,2.7,41,0.00,,,0.00,WUHU21623XXSP,2013-07-01 18:13:00,
2013-07-01 13:18:00,78.1,51.9,30.15,NE,45,1.8,3.1,40,0.00,,,0.00,WUHU21623XXSP,2013-07-01 18:18:00,
2013-07-01 13:23:00,77.5,52.0,30.15,SE,135,0.0,6.5,41,0.00,,,0.00,WUHU21623XXSP,2013-07-01 18:23:00,
2013-07-01 13:28:00,78.4,53.4,30.15,NNE,22,1.3,6.5,42,0.00,,,0.00,WUHU21623XXSP,2013-07-01 18:28:00,
2013-07-01 13:34:00,78.1,53.1,30.15,WSW,247,0.7,4.5,42,0.00,,,0.00,WUHU21623XXSP,2013-07-01 18:34:00,
2013-07-01 13:38:00,78.4,51.4,30.14,WSW,247,0.0,2.9,39,0.00,,,0.00,WUHU21623XXSP,2013-07-01 18:38:00,
2013-07-01 13:43:00,77.7,51.5,30.14,SSE,157,0.0,4.7,40,0.00,,,0.00,WUHU21623XXSP,2013-07-01 18:43:00,
2013-07-01 13:48:00,78.4,53.4,30.14,WNW,292,4.5,6.5,41,0.00,,,0.00,WUHU21623XXSP,2013-07-01 18:48:00,
2013-07-01 13:53:00,78.6,53.0,30.14,NW,315,0.0,6.5,41,0.00,,,0.00,WUHU21623XXSP,2013-07-01 18:53:00,
2013-07-01 13:58:00,78.6,52.4,30.14,SSW,202,0.0,6.0,40,0.00,,,0.00,WUHU21623XXSP,2013-07-01 18:58:00,
2013-07-01 14:03:00,79.0,54.5,30.14,NW,315,3.6,5.4,43,0.00,,,0.00,WUHU21623XXSP,2013-07-01 19:03:00,
2013-07-01 14:08:00,79.5,55.6,30.14,NW,315,1.8,5.4,44,0.00,,,0.00,WUHU21623XXSP,2013-07-01 19:08:00,
2013-07-01 14:13:00,79.5,53.8,30.14,NW,315,0.0,2.5,41,0.00,,,0.00,WUHU21623XXSP,2013-07-01 19:13:00,
2013-07-01 14:18:00,78.8,52.5,30.14,North,0,0.0,5.1,40,0.00,,,0.00,WUHU21623XXSP,2013-07-01 19:18:00,
2013-07-01 14:23:00,79.0,53.9,30.14,NNW,337,2.2,5.1,42,0.00,,,0.00,WUHU21623XXSP,2013-07-01 19:23:00,
2013-07-01 14:29:00,78.4,51.4,30.14,NNW,337,1.3,3.6,39,0.00,,,0.00,WUHU21623XXSP,2013-07-01 19:29:00,
2013-07-01 14:34:00,78.6,55.4,30.13,NE,45,0.0,1.8,45,0.00,,,0.00,WUHU21623XXSP,2013-07-01 19:34:00,
2013-07-01 14:38:00,78.6,51.6,30.13,NNE,22,0.0,5.1,39,0.00,,,0.00,WUHU21623XXSP,2013-07-01 19:38:00,
2013-07-01 14:43:00,79.0,52.7,30.13,NNW,337,1.6,7.4,40,0.00,,,0.00,WUHU21623XXSP,2013-07-01 19:43:00,
2013-07-01 14:49:00,80.2,56.3,30.13,NNW,337,1.3,7.4,44,0.00,,,0.00,WUHU21623XXSP,2013-07-01 19:49:00,
2013-07-01 14:54:00,81.3,54.0,30.13,NW,315,3.6,6.7,39,0.00,,,0.00,WUHU21623XXSP,2013-07-01 19:54:00,
2013-07-01 14:59:00,80.4,53.2,30.13,NW,315,0.0,6.7,39,0.00,,,0.00,WUHU21623XXSP,2013-07-01 19:59:00,
2013-07-01 15:04:00,79.9,51.9,30.13,North,0,0.2,4.9,38,0.00,,,0.00,WUHU21623XXSP,2013-07-01 20:04:00,
2013-07-01 15:09:00,79.2,51.3,30.12,NE,45,0.7,4.0,38,0.00,,,0.00,WUHU21623XXSP,2013-07-01 20:09:00,
2013-07-01 15:14:00,79.7,51.8,30.12,NE,45,1.3,4.9,38,0.00,,,0.00,WUHU21623XXSP,2013-07-01 20:14:00,
2013-07-01 15:19:00,80.2,52.3,30.12,NNE,22,0.0,6.3,38,0.00,,,0.00,WUHU21623XXSP,2013-07-01 20:19:00,
2013-07-01 15:24:00,80.4,52.4,30.12,NNE,22,2.2,6.3,38,0.00,,,0.00,WUHU21623XXSP,2013-07-01 20:24:00,
2013-07-01 15:29:00,80.2,53.8,30.12,NNE,22,0.0,4.0,40,0.00,,,0.00,WUHU21623XXSP,2013-07-01 20:29:00,
2013-07-01 15:34:00,81.1,54.6,30.12,NW,315,1.6,6.0,40,0.00,,,0.00,WUHU21623XXSP,2013-07-01 20:34:00,
2013-07-01 15:39:00,81.5,54.2,30.12,WSW,247,2.2,6.0,39,0.00,,,0.00,WUHU21623XXSP,2013-07-01 20:39:00,
2013-07-01 15:43:00,80.4,51.7,30.12,WSW,247,0.4,6.0,37,0.00,,,0.00,WUHU21623XXSP,2013-07-01 20:43:00,
2013-07-01 15:48:00,80.8,52.7,30.12,WSW,247,0.9,6.0,38,0.00,,,0.00,WUHU21623XXSP,2013-07-01 20:48:00,
2013-07-01 15:53:00,80.1,54.3,30.12,WSW,247,1.3,6.0,41,0.00,,,0.00,WUHU21623XXSP,2013-07-01 20:53:00,
2013-07-01 15:58:00,79.9,51.2,30.12,WSW,247,3.1,5.6,37,0.00,,,0.00,WUHU21623XXSP,2013-07-01 20:58:00,
2013-07-01 16:03:00,79.3,50.7,30.12,WSW,247,0.0,5.4,37,0.00,,,0.00,WUHU21623XXSP,2013-07-01 21:03:00,
2013-07-01 16:08:00,79.5,50.8,30.11,WSW,247,1.3,2.9,37,0.00,,,0.00,WUHU21623XXSP,2013-07-01 21:08:00,
2013-07-01 16:13:00,79.0,49.6,30.12,WSW,247,0.0,2.9,36,0.00,,,0.00,WUHU21623XXSP,2013-07-01 21:13:00,
2013-07-01 16:18:00,78.6,50.0,30.11,WSW,247,0.0,3.8,37,0.00,,,0.00,WUHU21623XXSP,2013-07-01 21:18:00,
2013-07-01 16:23:00,79.5,52.4,30.11,WSW,247,0.0,3.8,39,0.00,,,0.00,WUHU21623XXSP,2013-07-01 21:23:00,
2013-07-01 16:28:00,81.1,53.8,30.12,WSW,247,2.5,5.1,39,0.00,,,0.00,WUHU21623XXSP,2013-07-01 21:28:00,
2013-07-01 16:33:00,81.5,53.4,30.12,WSW,247,0.0,5.1,38,0.00,,,0.00,WUHU21623XXSP,2013-07-01 21:33:00,
2013-07-01 16:38:00,81.3,52.4,30.11,SSW,202,4.0,4.0,37,0.00,,,0.00,WUHU21623XXSP,2013-07-01 21:38:00,
2013-07-01 16:43:00,79.9,55.3,30.11,WSW,247,0.0,4.0,43,0.00,,,0.00,WUHU21623XXSP,2013-07-01 21:43:00,
2013-07-01 16:48:00,79.2,52.8,30.12,WSW,247,0.0,2.7,40,0.00,,,0.00,WUHU21623XXSP,2013-07-01 21:48:00,
2013-07-01 16:53:00,79.2,52.1,30.11,WSW,247,0.0,0.9,39,0.00,,,0.00,WUHU21623XXSP,2013-07-01 21:53:00,
2013-07-01 16:58:00,79.7,53.9,30.11,WSW,247,0.0,0.9,41,0.00,,,0.00,WUHU21623XXSP,2013-07-01 21:58:00,
2013-07-01 17:03:00,79.3,53.6,30.11,WNW,292,0.0,1.8,41,0.00,,,0.00,WUHU21623XXSP,2013-07-01 22:03:00,
2013-07-01 17:08:00,77.2,57.2,30.11,WSW,247,0.0,1.8,50,0.00,,,0.00,WUHU21623XXSP,2013-07-01 22:08:00,
2013-07-01 17:13:00,77.9,51.7,30.11,WSW,247,0.0,0.0,40,0.00,,,0.00,WUHU21623XXSP,2013-07-01 22:13:00,
2013-07-01 17:18:00,78.1,51.9,30.11,NW,315,0.0,0.0,40,0.00,,,0.00,WUHU21623XXSP,2013-07-01 22:18:00,
2013-07-01 17:23:00,76.8,53.8,30.11,NW,315,0.0,0.0,45,0.00,,,0.00,WUHU21623XXSP,2013-07-01 22:23:00,
2013-07-01 17:28:00,74.8,52.0,30.11,WSW,247,0.0,0.0,45,0.00,,,0.00,WUHU21623XXSP,2013-07-01 22:28:00,
2013-07-01 17:33:00,74.7,51.8,30.11,WSW,247,0.0,0.0,45,0.00,,,0.00,WUHU21623XXSP,2013-07-01 22:33:00,
2013-07-01 17:38:00,76.8,51.4,30.11,WSW,247,0.0,1.1,41,0.00,,,0.00,WUHU21623XXSP,2013-07-01 22:38:00,
2013-07-01 17:43:00,77.9,51.7,30.11,WSW,247,0.0,1.1,40,0.00,,,0.00,WUHU21623XXSP,2013-07-01 22:43:00,
2013-07-01 17:48:00,78.1,52.5,30.11,NE,45,0.7,3.4,41,0.00,,,0.00,WUHU21623XXSP,2013-07-01 22:48:00,
2013-07-01 17:53:00,76.5,52.9,30.11,South,180,0.7,3.4,44,0.00,,,0.00,WUHU21623XXSP,2013-07-01 22:53:00,
2013-07-01 17:58:00,75.4,54.3,30.11,WSW,247,0.0,6.3,48,0.00,,,0.00,WUHU21623XXSP,2013-07-01 22:58:00,
2013-07-01 18:03:00,75.0,54.0,30.11,South,180,6.3,6.5,48,0.00,,,0.00,WUHU21623XXSP,2013-07-01 23:03:00,
2013-07-01 18:08:00,74.8,53.8,30.11,SW,225,3.4,8.7,48,0.00,,,0.00,WUHU21623XXSP,2013-07-01 23:08:00,
2013-07-01 18:13:00,74.3,53.3,30.11,SE,135,6.5,8.7,48,0.00,,,0.00,WUHU21623XXSP,2013-07-01 23:13:00,
2013-07-01 18:18:00,73.8,53.3,30.11,South,180,2.2,7.8,49,0.00,,,0.00,WUHU21623XXSP,2013-07-01 23:18:00,
2013-07-01 18:23:00,73.2,52.3,30.11,SSW,202,3.6,7.8,48,0.00,,,0.00,WUHU21623XXSP,2013-07-01 23:23:00,
2013-07-01 18:28:00,73.0,53.3,30.11,SSE,157,2.9,8.3,50,0.00,,,0.00,WUHU21623XXSP,2013-07-01 23:28:00,
2013-07-01 18:33:00,73.2,53.9,30.11,SSE,157,1.3,8.3,51,0.00,,,0.00,WUHU21623XXSP,2013-07-01 23:33:00,
2013-07-01 18:38:00,73.0,52.7,30.12,East,90,0.0,7.4,49,0.00,,,0.00,WUHU21623XXSP,2013-07-01 23:38:00,
2013-07-01 18:43:00,72.9,52.5,30.12,SSE,157,4.7,7.4,49,0.00,,,0.00,WUHU21623XXSP,2013-07-01 23:43:00,
2013-07-01 18:48:00,72.7,52.4,30.11,South,180,2.7,7.2,49,0.00,,,0.00,WUHU21623XXSP,2013-07-01 23:48:00,
2013-07-01 18:53:00,72.3,53.1,30.11,ESE,112,4.0,6.5,51,0.00,,,0.00,WUHU21623XXSP,2013-07-01 23:53:00,
2013-07-01 18:58:00,72.0,52.8,30.11,South,180,0.9,8.1,51,0.00,,,0.00,WUHU21623XXSP,2013-07-01 23:58:00,
2013-07-01 19:03:00,71.8,52.6,30.12,SSE,157,0.0,8.1,51,0.00,,,0.00,WUHU21623XXSP,2013-07-02 00:03:00,
2013-07-01 19:08:00,71.8,52.1,30.12,SSE,157,8.1,8.1,50,0.00,,,0.00,WUHU21623XXSP,2013-07-02 00:08:00,
2013-07-01 19:13:00,71.4,51.8,30.11,South,180,3.1,8.1,50,0.00,,,0.00,WUHU21623XXSP,2013-07-02 00:13:00,
2013-07-01 19:18:00,71.2,52.2,30.12,SSE,157,7.8,7.8,51,0.00,,,0.00,WUHU21623XXSP,2013-07-02 00:18:00,
2013-07-01 19:23:00,71.2,52.2,30.12,SSE,157,0.7,7.8,51,0.00,,,0.00,WUHU21623XXSP,2013-07-02 00:23:00,
2013-07-01 19:28:00,70.7,51.7,30.12,SSE,157,2.0,7.8,51,0.00,,,0.00,WUHU21623XXSP,2013-07-02 00:28:00,
2013-07-01 19:33:00,70.3,51.9,30.12,South,180,2.0,6.0,52,0.00,,,0.00,WUHU21623XXSP,2013-07-02 00:33:00,
2013-07-01 19:38:00,70.3,51.9,30.12,SSW,202,2.7,4.9,52,0.00,,,0.00,WUHU21623XXSP,2013-07-02 00:38:00,
2013-07-01 19:43:00,70.0,51.5,30.12,SSW,202,0.0,4.9,52,0.00,,,0.00,WUHU21623XXSP,2013-07-02 00:43:00,
2013-07-01 19:49:00,69.4,52.0,30.12,South,180,2.5,4.9,54,0.00,,,0.00,WUHU21623XXSP,2013-07-02 00:49:00,
2013-07-01 19:54:00,69.1,51.7,30.12,ESE,112,2.0,4.0,54,0.00,,,0.00,WUHU21623XXSP,2013-07-02 00:54:00,
2013-07-01 19:59:00,69.1,51.2,30.12,South,180,2.7,4.0,53,0.00,,,0.00,WUHU21623XXSP,2013-07-02 00:59:00,
2013-07-01 20:04:00,68.9,51.5,30.12,SSE,157,0.0,3.1,54,0.00,,,0.00,WUHU21623XXSP,2013-07-02 01:04:00,
2013-07-01 20:09:00,68.4,52.0,30.12,SSE,157,0.0,4.3,56,0.00,,,0.00,WUHU21623XXSP,2013-07-02 01:09:00,
2013-07-01 20:14:00,67.8,51.5,30.12,WSW,247,0.0,4.3,56,0.00,,,0.00,WUHU21623XXSP,2013-07-02 01:14:00,
2013-07-01 20:19:00,67.6,50.8,30.12,SSW,202,0.0,2.0,55,0.00,,,0.00,WUHU21623XXSP,2013-07-02 01:19:00,
2013-07-01 20:24:00,67.3,50.5,30.12,SSW,202,1.3,4.9,55,0.00,,,0.00,WUHU21623XXSP,2013-07-02 01:24:00,
2013-07-01 20:29:00,67.1,50.8,30.12,SSE,157,0.0,4.9,56,0.00,,,0.00,WUHU21623XXSP,2013-07-02 01:29:00,
2013-07-01 20:34:00,66.4,50.7,30.12,SSE,157,1.1,3.4,57,0.00,,,0.00,WUHU21623XXSP,2013-07-02 01:34:00,
2013-07-01 20:39:00,66.4,50.2,30.12,South,180,1.8,3.4,56,0.00,,,0.00,WUHU21623XXSP,2013-07-02 01:39:00,
2013-07-01 20:44:00,66.0,50.8,30.12,SSE,157,1.3,4.3,58,0.00,,,0.00,WUHU21623XXSP,2013-07-02 01:44:00,
2013-07-01 20:49:00,66.0,50.8,30.12,SSW,202,0.0,4.3,58,0.00,,,0.00,WUHU21623XXSP,2013-07-02 01:49:00,
2013-07-01 20:54:00,65.1,50.9,30.12,SSW,202,0.0,3.4,60,0.00,,,0.00,WUHU21623XXSP,2013-07-02 01:54:00,
2013-07-01 20:59:00,64.9,49.7,30.12,SSE,157,2.5,5.4,58,0.00,,,0.00,WUHU21623XXSP,2013-07-02 01:59:00,
2013-07-01 21:04:00,64.9,48.8,30.12,SSW,202,0.0,5.6,56,0.00,,,0.00,WUHU21623XXSP,2013-07-02 02:04:00,
2013-07-01 21:09:00,64.6,48.9,30.12,South,180,0.0,5.6,57,0.00,,,0.00,WUHU21623XXSP,2013-07-02 02:09:00,
2013-07-01 21:14:00,63.9,48.7,30.13,South,180,2.7,3.8,58,0.00,,,0.00,WUHU21623XXSP,2013-07-02 02:14:00,
2013-07-01 21:19:00,63.1,49.0,30.13,South,180,0.0,3.8,60,0.00,,,0.00,WUHU21623XXSP,2013-07-02 02:19:00,
2013-07-01 21:24:00,63.0,49.3,30.12,SSE,157,0.0,2.9,61,0.00,,,0.00,WUHU21623XXSP,2013-07-02 02:24:00,
2013-07-01 21:29:00,62.6,49.0,30.12,ESE,112,0.0,2.9,61,0.00,,,0.00,WUHU21623XXSP,2013-07-02 02:29:00,
2013-07-01 21:34:00,62.4,48.4,30.12,SE,135,0.0,6.3,60,0.00,,,0.00,WUHU21623XXSP,2013-07-02 02:34:00,
2013-07-01 21:39:00,62.4,47.9,30.13,South,180,0.0,6.3,59,0.00,,,0.00,WUHU21623XXSP,2013-07-02 02:39:00,
2013-07-01 21:44:00,62.2,48.7,30.13,SSE,157,0.0,3.6,61,0.00,,,0.00,WUHU21623XXSP,2013-07-02 02:44:00,
2013-07-01 21:49:00,61.7,48.6,30.13,SSE,157,0.0,3.4,62,0.00,,,0.00,WUHU21623XXSP,2013-07-02 02:49:00,
2013-07-01 21:54:00,61.3,48.7,30.13,ESE,112,0.0,2.7,63,0.00,,,0.00,WUHU21623XXSP,2013-07-02 02:54:00,
2013-07-01 21:59:00,61.0,48.8,30.13,ESE,112,0.0,1.8,64,0.00,,,0.00,WUHU21623XXSP,2013-07-02 02:59:00,
2013-07-01 22:04:00,60.6,49.2,30.13,ESE,112,0.0,1.8,66,0.00,,,0.00,WUHU21623XXSP,2013-07-02 03:04:00,
2013-07-01 22:09:00,60.1,48.8,30.13,ESE,112,0.3,1.8,66,0.00,,,0.00,WUHU21623XXSP,2013-07-02 03:09:00,
2013-07-01 22:14:00,59.9,48.5,30.13,ESE,112,0.0,1.8,66,0.00,,,0.00,WUHU21623XXSP,2013-07-02 03:14:00,
2013-07-01 22:19:00,59.7,48.3,30.13,ESE,112,0.0,1.1,66,0.00,,,0.00,WUHU21623XXSP,2013-07-02 03:19:00,
2013-07-01 22:24:00,58.8,47.9,30.13,ESE,112,0.0,0.0,67,0.00,,,0.00,WUHU21623XXSP,2013-07-02 03:24:00,
2013-07-01 22:29:00,58.8,48.3,30.13,ESE,112,0.0,0.0,68,0.00,,,0.00,WUHU21623XXSP,2013-07-02 03:29:00,
2013-07-01 22:34:00,58.8,48.7,30.13,SW,225,0.0,2.9,69,0.00,,,0.00,WUHU21623XXSP,2013-07-02 03:34:00,
2013-07-01 22:39:00,58.6,48.1,30.13,SW,225,0.0,2.9,68,0.00,,,0.00,WUHU21623XXSP,2013-07-02 03:39:00,
2013-07-01 22:44:00,57.9,47.8,30.13,SW,225,0.0,0.0,69,0.00,,,0.00,WUHU21623XXSP,2013-07-02 03:44:00,
2013-07-01 22:49:00,57.9,48.6,30.13,SW,225,0.0,0.0,71,0.00,,,0.00,WUHU21623XXSP,2013-07-02 03:49:00,
2013-07-01 22:54:00,57.9,48.6,30.13,SW,225,0.0,0.0,71,0.00,,,0.00,WUHU21623XXSP,2013-07-02 03:54:00,
2013-07-01 22:59:00,57.4,48.0,30.13,SW,225,0.0,0.0,71,0.00,,,0.00,WUHU21623XXSP,2013-07-02 03:59:00,
2013-07-01 23:01:00,57.4,48.0,30.13,SW,225,0.0,0.0,71,0.00,,,0.00,WUHU21623XXSP,2013-07-02 04:01:00,
2013-07-01 23:06:00,57.4,47.2,30.13,SW,225,0.0,0.0,69,0.00,,,0.00,WUHU21623XXSP,2013-07-02 04:06:00,
2013-07-01 23:11:00,57.4,47.7,30.13,SW,225,0.0,0.0,70,0.00,,,0.00,WUHU21623XXSP,2013-07-02 04:11:00,
2013-07-01 23:16:00,57.4,47.2,30.13,SW,225,0.0,0.0,69,0.00,,,0.00,WUHU21623XXSP,2013-07-02 04:16:00,
2013-07-01 23:21:00,56.8,46.7,30.13,SW,225,0.0,0.0,69,0.00,,,0.00,WUHU21623XXSP,2013-07-02 04:21:00,
2013-07-01 23:26:00,56.8,47.2,30.13,North,0,0.0,0.0,70,0.00,,,0.00,WUHU21623XXSP,2013-07-02 04:26:00,
2013-07-01 23:31:00,56.3,46.7,30.13,SW,225,0.0,0.0,70,0.00,,,0.00,WUHU21623XXSP,2013-07-02 04:31:00,
2013-07-01 23:36:00,55.9,46.7,30.13,SW,225,0.0,0.0,71,0.00,,,0.00,WUHU21623XXSP,2013-07-02 04:36:00,
2013-07-01 23:41:00,55.6,46.7,30.13,SW,225,0.0,0.0,72,0.00,,,0.00,WUHU21623XXSP,2013-07-02 04:41:00,
2013-07-01 23:46:00,55.4,46.5,30.13,SW,225,0.0,0.0,72,0.00,,,0.00,WUHU21623XXSP,2013-07-02 04:46:00,
2013-07-01 23:51:00,55.0,46.5,30.13,SW,225,0.0,0.0,73,0.00,,,0.00,WUHU21623XXSP,2013-07-02 04:51:00,
2013-07-01 23:57:00,54.9,46.7,30.13,SW,225,0.0,0.0,72,0.00,,,0.00,WUHU21623XXSP,2013-07-02 04:57:00,